Regional Weather Roundup
Issued by NWS Mt. Holly, NJ

Home | Current Version | Previous Version | Text Only | Print | Product List | Glossary On
Versions: 1 2 3 4 5 6 7 8 9 10 11 12 13 14 15 16 17 18 19 20 21 22 23 24 25 26 27 28 29 30 31 32 33 34 35 36 37 38 39 40 41 42 43 44 45 46 47 48 49 50
000
ASUS41 KPHI 172013
RWRPHI

REGIONAL WEATHER ROUNDUP
NATIONAL WEATHER SERVICE MOUNT HOLLY NJ
300 PM EST SAT FEB 17 2018

NOTE:  "FAIR" INDICATES FEW OR NO CLOUDS BELOW 12,000 FEET WITH NO
SIGNIFICANT WEATHER AND/OR OBSTRUCTIONS TO VISIBILITY.

 * = STATION DOES NOT REPORT PRECIPITATION (E.G. RAIN, SNOW, ETC.)
        OR FOG.

NJZ015>026-172100-
SOUTHERN NEW JERSEY

CITY           SKY/WX    TMP DP  RH WIND       PRES   REMARKS
POMONA         FAIR      41  31  67 E6        30.29R
WILDWOOD*      CLOUDY    39  30  70 NE7       30.29R WCI  34
MILLVILLE      PTSUNNY   41  28  60 E7        30.29R
MOUNT HOLLY    FAIR      41  28  60 S8        30.28S
TRENTON        CLOUDY    40  26  57 SE8       30.27F WCI  34

$$
NJZ001>014-172100-
NORTHERN NEW JERSEY

CITY           SKY/WX    TMP DP  RH WIND       PRES   REMARKS
SUSSEX         FAIR      36  21  54 S8G17     30.25F WCI  30
ANDOVER*         N/A     35  20  54 S7        30.24F WCI  29
MORRISTOWN     CLOUDY    36  25  64 SE13      30.30F WCI  27
NEWARK         CLOUDY    36  23  59 SE9       30.31F WCI  29
TETERBORO      CLOUDY    37  22  54 SE9       30.30F WCI  30
CALDWELL       PTSUNNY   34  23  64 SE12      30.31S WCI  25
SOMERVILLE     FAIR      38  25  59 SE8G17    30.27F WCI  32
ALLAIRE*       CLOUDY    37  24  59 VRB3      30.33R
TOMS RIVER*    FAIR      40  28  62 E5        30.31F

$$
PAZ043-044-047-054-055-060>062-066>071-172100-
EASTERN PENNSYLVANIA

CITY           SKY/WX    TMP DP  RH WIND       PRES   REMARKS
PHILADELPHIA   CLOUDY    41  24  51 S7        30.29R
NORTH PHILA    PTSUNNY   42  25  50 E6        30.29S
BLUE BELL*     CLOUDY    37  23  56 S5        30.28F WCI  34
DOYLESTOWN     CLOUDY    38  21  50 S8        30.26S WCI  32
QUAKERTOWN*    MOSUNNY   37  19  48 S6        30.26F WCI  33
PERKASIE*      FAIR      37  19  48 SE3       30.27F
POTTSTOWN      CLOUDY    37  19  48 SE5       30.29F WCI  33
LANCASTER      CLOUDY    37  23  56 S9        30.24F WCI  30
COATESVILLE    FAIR      36 N/A N/A SE5       30.26F WCI  32
READING        CLOUDY    37  20  50 S9        30.25F WCI  30
ALLENTOWN      PTSUNNY   39  19  44 S9        30.26F WCI  33
MOUNT POCONO   NOT AVBL
HAZLETON       CLOUDY    32  18  55 SE10G21   30.17F WCI  24
LEHIGHTON      CLOUDY    36  19  51 SE5       30.24F WCI  32
WILKES BARRE   FAIR      34  18  52 VRB7      30.16F WCI  28

$$
DEZALL-MDZ008-012-015-019-020-172100-
DELAWARE AND EASTERN MARYLAND

CITY           SKY/WX    TMP DP  RH WIND       PRES   REMARKS
WILMINGTON     PTSUNNY   38  27  64 S8        30.30R WCI  32
DOVER          PTSUNNY   39  29  68 E6        30.29R WCI  34
GEORGETOWN     LGT RAIN  41  30  65 NE7       30.27S
EASTON         LGT RAIN  41  28  60 NE5       30.32R
ABERDEEN       LGT RAIN N/A N/A N/A SE3       30.28
PATUXENT       CLOUDY    40  31  70 CALM      30.25
OCEAN CITY     CLOUDY    40  32  73 NE7       30.24F
WALLOPS ISLAND LGT RAIN  42  33  70 NE10      30.22F
CAMBRIDGE      CLOUDY    41  30  65 N5        30.27R
SALISBURY      CLOUDY    41  32  70 SE9       30.23F

$$
PAZ001-021-NYZ056-072-MDZ011-DCZ001-172100-
OTHER NEARBY LOCATIONS

CITY           SKY/WX    TMP DP  RH WIND       PRES   REMARKS
HARRISBURG     CLOUDY    38  24  57 S10       30.18F WCI  31
STATE COLLEGE  LGT SNOW  32  23  69 SW9G23    30.10F WCI  24
WILLIAMSPORT   PTSUNNY   35  20  54 E8        30.16F WCI  29
BINGHAMTON     FAIR      30  14  51 S12G21    30.07F WCI  20
NEW YORK CITY  CLOUDY    36  21  54 CALM      30.33F
BALTIMORE      LGT SNOW  36  30  79 SE6       30.26S FOG     WCI  31
WASHINGTON DC  LGT SNOW  36  32  85 E5        30.26F FOG     WCI  32

$$



USA.gov is the U.S. government's official web portal to all federal, state and local government web resources and services.